DW8016 Weather Reports


time (UTC)temp
C
wind
direction
speed
KPH
gust
KPH
rain 1hr
cm
rain 24hr
cm
rain mn
cm
humidity
%
barometer
mb
20260504033741 9 263 0.0 0.0 0.00 0.00 0.00 56 1014.7
20260504032713 9 263 0.0 0.0 0.00 0.00 0.00 56 1014.6
20260504031707 10 263 0.0 0.0 0.00 0.00 0.00 56 1014.5
20260504025512 10 263 0.0 0.0 0.00 0.00 0.00 54 1014.5
20260504023359 10 263 0.0 0.0 0.00 0.00 0.00 55 1014.3
20260504022351 10 263 0.0 0.0 0.00 0.00 0.00 55 1014.2
20260504021341 10 263 0.0 0.0 0.00 0.00 0.00 55 1014.1
20260504020325 10 263 0.0 0.0 0.00 0.00 0.00 52 1014.1
20260504015343 11 263 0.0 0.0 0.00 0.00 0.00 52 1014.0
20260504014407 11 263 0.0 0.0 0.00 0.00 0.00 49 1013.9
20260504013429 11 263 0.0 0.0 0.00 0.00 0.00 48 1013.9
20260504012403 12 263 0.0 0.0 0.00 0.00 0.00 46 1013.8
20260504011340 12 263 0.0 0.0 0.00 0.00 0.00 45 1013.8
20260504010347 13 263 0.0 0.0 0.00 0.00 0.00 43 1013.8
20260504005403 13 263 0.0 0.0 0.00 0.00 0.00 42 1013.8
20260504004350 13 263 0.0 0.0 0.00 0.00 0.00 41 1013.6
20260504002238 15 263 0.0 1.6 0.00 0.00 0.00 34 1013.5
20260504001237 15 263 0.0 1.6 0.00 0.00 0.00 32 1013.5
20260504000211 16 263 0.0 1.6 0.00 0.00 0.00 32 1013.3
20260503235222 16 263 0.0 9.7 0.00 0.00 0.00 31 1013.2
20260503233034 16 242 1.6 9.7 0.00 0.00 0.00 30 1013.2
20260503232045 16 296 3.2 9.7 0.00 0.00 0.00 29 1013.0
20260503231023 17 322 0.0 9.7 0.00 0.00 0.00 31 1012.8
20260503230015 17 286 1.6 12.9 0.00 0.00 0.00 29 1012.8
20260503225008 17 294 3.2 12.9 0.00 0.00 0.00 28 1012.9
20260503222811 17 332 3.2 11.3 0.00 0.00 0.00 28 1013.0
20260503221746 17 322 4.8 17.7 0.00 0.00 0.00 27 1012.9
20260503220747 17 261 1.6 12.9 0.00 0.00 0.00 27 1013.1
20260503215722 17 288 4.8 17.7 0.00 0.00 0.00 27 1013.1
20260503214728 18 300 3.2 17.7 0.00 0.00 0.00 28 1013.1
20260503213730 18 302 3.2 14.5 0.00 0.00 0.00 27 1013.1
20260503212740 18 278 3.2 9.7 0.00 0.00 0.00 28 1013.2
20260503211711 18 317 1.6 19.3 0.00 0.00 0.00 28 1013.2
20260503210650 18 317 3.2 19.3 0.00 0.00 0.00 26 1013.2
20260503205641 18 290 1.6 14.5 0.00 0.00 0.00 27 1013.2
20260503203453 18 246 4.8 12.9 0.00 0.00 0.00 28 1013.3
20260503202438 18 224 4.8 20.9 0.00 0.00 0.00 27 1013.5
20260503201432 18 313 4.8 20.9 0.00 0.00 0.00 28 1013.6
20260503200429 18 306 4.8 20.9 0.00 0.00 0.00 28 1013.8
20260503195448 18 302 4.8 20.9 0.00 0.00 0.00 28 1013.8
20260503194513 18 287 4.8 14.5 0.00 0.00 0.00 28 1014.0
20260503193528 17 266 4.8 19.3 0.00 0.00 0.00 29 1014.0
20260503192542 17 317 4.8 19.3 0.00 0.00 0.00 29 1014.2
20260503190345 18 323 6.4 17.7 0.00 0.00 0.00 27 1014.6
20260503185327 18 304 3.2 17.7 0.00 0.00 0.00 30 1014.6
20260503184343 18 26 6.4 17.7 0.00 0.00 0.00 30 1014.8
20260503183402 17 291 6.4 16.1 0.00 0.00 0.00 30 1015.0
20260503181158 17 306 3.2 12.9 0.00 0.00 0.00 31 1014.9
20260503173934 17 260 6.4 16.1 0.00 0.00 0.00 28 1015.2
20260503171746 17 309 3.2 12.9 0.00 0.00 0.00 31 1015.5
20260503150409 14 262 4.8 14.5 0.00 0.00 0.00 35 1016.1
20260503131052 11 310 4.8 12.9 0.00 0.00 0.00 45 1016.5
20260503110817 6 306 1.6 6.4 0.00 0.00 0.00 68 1015.6
20260503090504 6 302 1.6 6.4 0.00 0.00 0.00 68 1013.9
20260503080252 6 304 0.0 4.8 0.00 0.00 0.00 66 1013.7
20260503072327 6 303 1.6 6.4 0.00 0.00 0.00 66 1013.3
20260503070110 6 296 0.0 4.8 0.00 0.00 0.00 65 1013.1
20260503054803 7 275 0.0 0.0 0.00 0.00 0.00 63 1012.8
20260503053741 7 274 0.0 3.2 0.00 0.00 0.00 62 1012.8
20260503052743 8 339 0.0 1.6 0.00 0.00 0.00 62 1012.8
20260503051714 8 339 0.0 0.0 0.00 0.00 0.00 62 1012.9
20260503050704 8 339 0.0 1.6 0.00 0.00 0.00 60 1013.0
20260503044555 9 339 0.0 0.0 0.00 0.00 0.00 58 1013.1
20260503043616 9 339 0.0 0.0 0.00 0.00 0.00 57 1013.1
20260503042543 9 339 0.0 0.0 0.00 0.00 0.00 56 1013.2
20260503041559 10 339 0.0 0.0 0.00 0.00 0.00 55 1013.1
20260503035503 10 345 0.0 8.0 0.00 0.00 0.00 54 1013.1